Back to catalog

COSMOS 2251 DEB

AliveLEO
NORAD 33944·DEBRIS·🇷🇺 Russia

Launched Jun 16, 1993 from Plesetsk Cosmodrome

Loading…

Next Passes (next 24 hours)

TLE

FreshSource: Space-Track

Epoch: Sep 14, 2026, 11:34 UTC

1 33944U 93036EZ  26257.48260808  .00000374  00000-0  12394-3 0  9998
2 33944  74.0406 161.3999 0113559 194.3848 340.9078 14.37767701919907

Track COSMOS 2251 DEB in real time with AllMySat

Download on the App Store